Track COSMOS 1066 now! 10-day predictions COSMOS 1066 is classified as:
1 11165U 78121A 22219.85883563 .00000027 00000-0 75855-5 0 9999 2 11165 81.2375 192.8091 0050178 135.0788 225.4461 14.11680820762454